Check out our new BloomSky Weather System.

Active alerts


No alerts


Thunder radar  blitzortung!


Rain radar more information rain snow radar


Visit our other weather sites:

Template documentation
and downloads

And another site



Weather Underground History page Text

Daily Summary for January 17, 2018 Units:  Metric    English   Both
« Previous Day
Next Day »
Daily Weekly Monthly Yearly Custom
  High: Low: Average:
Temperature: -17.8 °C -7.9 °C -2 °C
Dew Point: -17.8 °C -11.7 °C -9.1 °C
Humidity: Humidity % 40 % 60 %
Wind Speed: 0 km/h 0 km/h 2.7 km/h
Wind Gust: 0 km/h - -
Wind:- - West
Pressure: 0 hPa 1037.1 hPa -
Precipitation: 0 mm    
Historical Graphs
 
 
Tabular Data for January 17, 2018
Time Temperature Dew Point Pressure Wind Wind Speed Wind Gust Humidity Rainfall Rate (Hourly)
-17.8 °C -17.8 °C 0 hPa Calm     Humidity % 0 mm
00:09 -4.5 °C -9.3 °C 1039.8 hPa North 3.2 km/h 22.5 km/h 69 % 0 mm
00:16 -4.6 °C -9.4 °C 1039.8 hPa North 1.6 km/h 14.5 km/h 69 % 0 mm
00:27 -4.8 °C -9.4 °C 1039.8 hPa NNW 4.8 km/h 9.7 km/h 70 % 0 mm
01:24 -5.2 °C -10.4 °C 1039.8 hPa NW 4.8 km/h 19.3 km/h 67 % 0 mm
01:31 -5.2 °C -10.4 °C 1039.8 hPa NW 12.9 km/h 16.1 km/h 67 % 0 mm
01:40 -5.3 °C -10.3 °C 1039.8 hPa North 3.2 km/h 14.5 km/h 68 % 0 mm
01:47 -5.3 °C -10.5 °C 1039.8 hPa NW 3.2 km/h 14.5 km/h 67 % 0 mm
01:54 -5.4 °C -10.6 °C 1039.8 hPa NW 9.7 km/h 14.5 km/h 67 % 0 mm
02:02 -5.5 °C -10.7 °C 1039.8 hPa NNW 6.4 km/h 14.5 km/h 67 % 0 mm
02:17 -5.7 °C -10.8 °C 1039.8 hPa NW 1.6 km/h 11.3 km/h 67 % 0 mm
02:34 -5.8 °C -10.9 °C 1039.8 hPa NNW 3.2 km/h 9.7 km/h 67 % 0 mm
02:43 -5.9 °C -10.9 °C 1039.8 hPa North 4.8 km/h 11.3 km/h 68 % 0 mm
02:48 -6 °C -10.9 °C 1039.8 hPa WNW 4.8 km/h 11.3 km/h 68 % 0 mm
02:57 -6.1 °C -11.2 °C 1039.8 hPa NNE 1.6 km/h 11.3 km/h 67 % 0 mm
03:12 -6.2 °C -11.1 °C 1039.8 hPa NNW 1.6 km/h 9.7 km/h 68 % 0 mm
03:17 -6.3 °C -11.2 °C 1039.8 hPa NNW 3.2 km/h 9.7 km/h 68 % 0 mm
03:23 -6.3 °C -11.2 °C 1039.8 hPa NNW 3.2 km/h 9.7 km/h 68 % 0 mm
03:38 -6.4 °C -11.3 °C 1039.8 hPa NNW 8 km/h 14.5 km/h 68 % 0 mm
03:45 -6.4 °C -11.3 °C 1040.2 hPa NNW 4.8 km/h 14.5 km/h 68 % 0 mm
03:56 -6.5 °C -11.4 °C 1040.2 hPa NNW 4.8 km/h 12.9 km/h 68 % 0 mm
04:14 -6.7 °C -11.4 °C 1040.2 hPa NW 3.2 km/h 11.3 km/h 69 % 0 mm
04:25 -6.7 °C -11.4 °C 1040.2 hPa Calm   12.9 km/h 69 % 0 mm
04:30 -6.7 °C -11.4 °C 1040.2 hPa NW 3.2 km/h 12.9 km/h 69 % 0 mm
04:46 -6.8 °C -11.4 °C 1040.5 hPa NNW 3.2 km/h 9.7 km/h 70 % 0 mm
05:00 -6.9 °C -11.4 °C 1040.9 hPa NW 3.2 km/h 11.3 km/h 70 % 0 mm
05:11 -7 °C -11.5 °C 1040.9 hPa NNW 4.8 km/h 12.9 km/h 70 % 0 mm
05:28 -7.1 °C -11.5 °C 1040.9 hPa NNW 4.8 km/h 11.3 km/h 71 % 0 mm
05:35 -7.2 °C -11.4 °C 1040.9 hPa NW 3.2 km/h 12.9 km/h 72 % 0 mm
05:51 -7.4 °C -11.4 °C 1040.9 hPa Calm   11.3 km/h 73 % 0 mm
05:59 -7.4 °C -11.4 °C 1040.9 hPa North 1.6 km/h 11.3 km/h 73 % 0 mm
06:06 -7.4 °C -11.4 °C 1040.9 hPa NNW 4.8 km/h 12.9 km/h 73 % 0 mm
06:17 -7.5 °C -11.5 °C 1040.9 hPa WNW 8 km/h 11.3 km/h 73 % 0 mm
06:42 -7.7 °C -11.5 °C 1041.2 hPa NW 3.2 km/h 12.9 km/h 74 % 0 mm
06:48 -7.7 °C -11.5 °C 1040.9 hPa Calm   11.3 km/h 74 % 0 mm
07:05 -7.8 °C -11.6 °C 1041.2 hPa NNW 3.2 km/h 11.3 km/h 74 % 0 mm
07:16 -7.9 °C -11.7 °C 1041.2 hPa NNW 8 km/h 12.9 km/h 74 % 0 mm
07:28 -7.9 °C -11.6 °C 1041.2 hPa NNW 6.4 km/h 12.9 km/h 75 % 0 mm
07:40 -7.9 °C -11.6 °C 1041.5 hPa NNW 3.2 km/h 17.7 km/h 75 % 0 mm
07:52 -7.7 °C -11.4 °C 1041.5 hPa NNW 6.4 km/h 11.3 km/h 75 % 0 mm
07:59 -7.6 °C -11.3 °C 1041.9 hPa North 8 km/h 11.3 km/h 75 % 0 mm
08:04 -7.4 °C -11.2 °C 1041.9 hPa NNW 8 km/h 11.3 km/h 74 % 0 mm
08:10 -7.3 °C -11.1 °C 1041.9 hPa North 3.2 km/h 16.1 km/h 74 % 0 mm
08:21 -7 °C -10.8 °C 1041.9 hPa NW 1.6 km/h 14.5 km/h 74 % 0 mm
08:27 -6.7 °C -10.7 °C 1041.9 hPa WNW 4.8 km/h 14.5 km/h 73 % 0 mm
08:33 -6.6 °C -10.6 °C 1041.9 hPa NNE 4.8 km/h 17.7 km/h 73 % 0 mm
08:42 -6.3 °C -10.5 °C 1041.9 hPa WNW 4.8 km/h 17.7 km/h 72 % 0 mm
08:48 -6.1 °C -10.7 °C 1041.9 hPa NNW 1.6 km/h 11.3 km/h 70 % 0 mm
08:54 -5.9 °C -10.7 °C 1041.9 hPa NNW 4.8 km/h 12.9 km/h 69 % 0 mm
09:16 -5.4 °C -10.7 °C 1041.9 hPa NNE 6.4 km/h 16.1 km/h 66 % 0 mm
09:25 -5.3 °C -10.3 °C 1041.9 hPa NW 4.8 km/h 19.3 km/h 68 % 0 mm
09:32 -5.1 °C -10.5 °C 1041.9 hPa East 12.9 km/h 19.3 km/h 66 % 0 mm
09:46 -4.7 °C -10.1 °C 1041.9 hPa NNE 8 km/h 19.3 km/h 66 % 0 mm
09:52 -4.6 °C -10.2 °C 1041.9 hPa NNW 4.8 km/h 19.3 km/h 65 % 0 mm
09:59 -4.4 °C -10.2 °C 1041.9 hPa ENE 9.7 km/h 17.7 km/h 64 % 0 mm
10:10 -4 °C -9.8 °C 1041.9 hPa NNW 8 km/h 22.5 km/h 64 % 0 mm
10:18 -3.7 °C -9.9 °C 1041.5 hPa NW 4.8 km/h 17.7 km/h 62 % 0 mm
10:26 -3.7 °C -9.9 °C 1041.5 hPa NW 11.3 km/h 19.3 km/h 62 % 0 mm
10:38 -3.4 °C -9.6 °C 1041.5 hPa ENE 9.7 km/h 16.1 km/h 62 % 0 mm
10:50 -2.8 °C -9.1 °C 1041.5 hPa NNE 8 km/h 17.7 km/h 62 % 0 mm
10:57 -2.7 °C -9.4 °C 1041.2 hPa NNW 3.2 km/h 16.1 km/h 60 % 0 mm
11:04 -2.6 °C -9.3 °C 1041.2 hPa North 3.2 km/h 16.1 km/h 60 % 0 mm
11:11 -2.3 °C -9 °C 1041.2 hPa NW 8 km/h 22.5 km/h 60 % 0 mm
11:22 -2.1 °C -9.5 °C 1040.9 hPa North 14.5 km/h 22.5 km/h 57 % 0 mm
11:32 -1.7 °C -8.9 °C 1040.9 hPa North 11.3 km/h 17.7 km/h 58 % 0 mm
11:39 -1.6 °C -9 °C 1040.9 hPa NNW 8 km/h 17.7 km/h 57 % 0 mm
11:52 -1.1 °C -9 °C 1040.5 hPa NNE 11.3 km/h 20.9 km/h 55 % 0 mm
12:36 0.2 °C -8.5 °C 1039.2 hPa NW 3.2 km/h 16.1 km/h 52 % 0 mm
12:44 0.3 °C -8.7 °C 1039.2 hPa NNE 3.2 km/h 16.1 km/h 51 % 0 mm
12:58 0.7 °C -8.5 °C 1038.8 hPa North 8 km/h 14.5 km/h 50 % 0 mm
13:08 0.8 °C -9.2 °C 1038.5 hPa Calm   16.1 km/h 47 % 0 mm
13:16 0.9 °C -8.6 °C 1038.5 hPa NW 4.8 km/h 16.1 km/h 49 % 0 mm
13:22 1.4 °C -8.2 °C 1038.1 hPa NW 9.7 km/h 12.9 km/h 49 % 0 mm
13:36 1.7 °C -8.7 °C 1038.1 hPa North 6.4 km/h 14.5 km/h 46 % 0 mm
13:41 1.6 °C -8.8 °C 1038.1 hPa NNW 4.8 km/h 11.3 km/h 46 % 0 mm
13:46 1.7 °C -9 °C 1038.1 hPa NW 1.6 km/h 14.5 km/h 45 % 0 mm
13:52 1.8 °C -9.2 °C 1037.8 hPa NNW 4.8 km/h 14.5 km/h 44 % 0 mm
13:57 1.6 °C -9.3 °C 1037.8 hPa NNW 9.7 km/h 14.5 km/h 44 % 0 mm
14:02 1.7 °C -8.7 °C 1037.8 hPa WSW 1.6 km/h 11.3 km/h 46 % 0 mm
14:07 2.3 °C -8.4 °C 1037.8 hPa NNW 4.8 km/h 9.7 km/h 45 % 0 mm
14:12 2.2 °C -9.1 °C 1037.8 hPa North 8 km/h 12.9 km/h 43 % 0 mm
14:17 2.3 °C -8.7 °C 1037.8 hPa NNW 8 km/h 16.1 km/h 44 % 0 mm
14:22 2.2 °C -8.8 °C 1037.8 hPa NNW 1.6 km/h 16.1 km/h 44 % 0 mm
14:27 2.5 °C -8.5 °C 1037.8 hPa WNW 1.6 km/h 16.1 km/h 44 % 0 mm
14:32 2.7 °C -7 °C 1037.5 hPa SSW 1.6 km/h 16.1 km/h 49 % 0 mm
14:35 2.7 °C -7.2 °C 1037.5 hPa NW 4.8 km/h 16.1 km/h 48 % 0 mm
14:37 2.7 °C -7.5 °C 1037.5 hPa NW 3.2 km/h 9.7 km/h 47 % 0 mm
14:42 2.4 °C -8.9 °C 1037.5 hPa NNW 4.8 km/h 11.3 km/h 43 % 0 mm
14:44 2.4 °C -7.8 °C 1037.5 hPa Calm   11.3 km/h 47 % 0 mm
14:47 2.5 °C -7.7 °C 1037.5 hPa NNW 8 km/h 12.9 km/h 47 % 0 mm
14:52 2.4 °C -8.3 °C 1037.5 hPa ENE 3.2 km/h 12.9 km/h 45 % 0 mm
14:57 2.4 °C -7.8 °C 1037.5 hPa North 3.2 km/h 12.9 km/h 47 % 0 mm
15:02 2.7 °C -8.1 °C 1037.5 hPa Calm   12.9 km/h 45 % 0 mm
15:07 2.9 °C -8.2 °C 1037.5 hPa NW 1.6 km/h 8 km/h 44 % 0 mm
15:11 3.2 °C -7.9 °C 1037.5 hPa North 1.6 km/h 8 km/h 44 % 0 mm
15:15 3.3 °C -8.1 °C 1037.5 hPa ENE 1.6 km/h 9.7 km/h 43 % 0 mm
15:20 3.6 °C -8.1 °C 1037.5 hPa NNW 6.4 km/h 9.7 km/h 42 % 0 mm
15:21 3.5 °C -8.2 °C 1037.5 hPa Calm   9.7 km/h 42 % 0 mm
15:22 3.5 °C -8.2 °C 1037.5 hPa NNW 4.8 km/h 9.7 km/h 42 % 0 mm
15:23 3.5 °C -7.9 °C 1037.5 hPa North 4.8 km/h 9.7 km/h 43 % 0 mm
15:26 3.4 °C -8.6 °C 1037.5 hPa NW 3.2 km/h 9.7 km/h 41 % 0 mm
15:27 3.4 °C -8.3 °C 1037.5 hPa Calm   9.7 km/h 42 % 0 mm
15:28 3.4 °C -8.3 °C 1037.5 hPa NNW 3.2 km/h 9.7 km/h 42 % 0 mm
15:33 3.6 °C -8.4 °C 1037.5 hPa NNW 1.6 km/h 9.7 km/h 41 % 0 mm
15:36 3.5 °C -8.5 °C 1037.5 hPa Calm   9.7 km/h 41 % 0 mm
15:38 3.4 °C -8.6 °C 1037.5 hPa Calm   9.7 km/h 41 % 0 mm
15:40 3.4 °C -8.6 °C 1037.1 hPa Calm   8 km/h 41 % 0 mm
15:45 3.3 °C -8.7 °C 1037.1 hPa NNW 6.4 km/h 12.9 km/h 41 % 0 mm
15:49 3.1 °C -8.9 °C 1037.1 hPa NW 1.6 km/h 12.9 km/h 41 % 0 mm
15:50 3.1 °C -8.6 °C 1037.1 hPa NW 3.2 km/h 12.9 km/h 42 % 0 mm
15:55 3.2 °C -8.8 °C 1037.1 hPa North 4.8 km/h 12.9 km/h 41 % 0 mm
16:00 3.3 °C -8.4 °C 1037.1 hPa Calm   9.7 km/h 42 % 0 mm
16:05 3.3 °C -9 °C 1037.1 hPa NW 8 km/h 12.9 km/h 40 % 0 mm
16:10 3.1 °C -8.6 °C 1037.1 hPa NNE 8 km/h 12.9 km/h 42 % 0 mm
16:15 3.1 °C -8.6 °C 1037.1 hPa Calm   12.9 km/h 42 % 0 mm
16:20 3.1 °C -8.9 °C 1037.5 hPa NW 1.6 km/h 12.9 km/h 41 % 0 mm
16:25 3 °C -9 °C 1037.5 hPa Calm   12.9 km/h 41 % 0 mm
16:30 3.1 °C -8.6 °C 1037.5 hPa WNW 1.6 km/h 6.4 km/h 42 % 0 mm
16:35 3.1 °C -8.9 °C 1037.5 hPa Calm   6.4 km/h 41 % 0 mm
16:40 3.1 °C -8.9 °C 1037.5 hPa Calm   8 km/h 41 % 0 mm
16:45 3.1 °C -8.6 °C 1037.5 hPa Calm   8 km/h 42 % 0 mm
16:50 3 °C -8.7 °C 1037.5 hPa NW 1.6 km/h 8 km/h 42 % 0 mm
16:55 2.9 °C -8.8 °C 1037.5 hPa NNE 8 km/h 8 km/h 42 % 0 mm
17:00 2.7 °C -8.6 °C 1037.5 hPa NE 1.6 km/h 8 km/h 43 % 0 mm
17:05 2.7 °C -8.6 °C 1037.5 hPa Calm   8 km/h 43 % 0 mm
17:10 2.5 °C -8.8 °C 1037.5 hPa Calm   8 km/h 43 % 0 mm
17:15 2.4 °C -8.9 °C 1037.5 hPa Calm   8 km/h 43 % 0 mm
17:20 2.2 °C -8.8 °C 1037.5 hPa NE 1.6 km/h 8 km/h 44 % 0 mm
17:25 2.1 °C -8.6 °C 1037.5 hPa Calm   3.2 km/h 45 % 0 mm
17:30 1.9 °C -8.5 °C 1037.5 hPa Calm   3.2 km/h 46 % 0 mm
17:35 1.8 °C -8.6 °C 1037.5 hPa Calm   4.8 km/h 46 % 0 mm
17:40 1.7 °C -8.4 °C 1037.5 hPa Calm   6.4 km/h 47 % 0 mm
17:45 1.6 °C -8.5 °C 1037.5 hPa NNE 1.6 km/h 6.4 km/h 47 % 0 mm
17:50 1.3 °C -8.5 °C 1037.5 hPa Calm   6.4 km/h 48 % 0 mm
17:56 1.2 °C -8.6 °C 1037.1 hPa NE 1.6 km/h 4.8 km/h 48 % 0 mm
18:01 1 °C -8.5 °C 1037.1 hPa NNE 1.6 km/h 4.8 km/h 49 % 0 mm
18:06 0.9 °C -8.4 °C 1037.1 hPa NNE 1.6 km/h 4.8 km/h 50 % 0 mm
18:11 0.7 °C -8.5 °C 1037.1 hPa Calm   3.2 km/h 50 % 0 mm
18:16 0.6 °C -8.6 °C 1037.1 hPa North 1.6 km/h 3.2 km/h 50 % 0 mm
18:21 0.4 °C -8.8 °C 1037.1 hPa Calm   3.2 km/h 50 % 0 mm
18:26 0.4 °C -8.6 °C 1037.1 hPa North 1.6 km/h 3.2 km/h 51 % 0 mm
18:31 0.2 °C -8.7 °C 1037.1 hPa Calm   3.2 km/h 51 % 0 mm
18:36 0.1 °C -8.6 °C 1037.1 hPa Calm   3.2 km/h 52 % 0 mm
18:41 0 °C -8.4 °C 1037.1 hPa Calm   3.2 km/h 53 % 0 mm
18:46 -0.1 °C -8.5 °C 1037.1 hPa NW 1.6 km/h 3.2 km/h 53 % 0 mm
18:51 -0.2 °C -8.6 °C 1037.1 hPa Calm   3.2 km/h 53 % 0 mm
18:56 -0.2 °C -8.6 °C 1037.1 hPa Calm   3.2 km/h 53 % 0 mm
19:01 -0.3 °C -8.7 °C 1037.1 hPa Calm   3.2 km/h 53 % 0 mm
19:06 -0.4 °C -8.6 °C 1037.1 hPa NNW 1.6 km/h 1.6 km/h 54 % 0 mm
19:11 -0.4 °C -8.6 °C 1037.1 hPa Calm   3.2 km/h 54 % 0 mm
19:16 -0.5 °C -8.7 °C 1037.1 hPa Calm   3.2 km/h 54 % 0 mm
19:21 -0.6 °C -8.5 °C 1037.1 hPa Calm   3.2 km/h 55 % 0 mm
19:26 -0.7 °C -8.6 °C 1037.1 hPa Calm   3.2 km/h 55 % 0 mm
19:31 -0.8 °C -8.5 °C 1037.1 hPa Calm   3.2 km/h 56 % 0 mm
19:36 -0.9 °C -8.6 °C 1037.1 hPa Calm   1.6 km/h 56 % 0 mm
19:41 -1 °C -8.4 °C 1037.1 hPa Calm   1.6 km/h 57 % 0 mm
19:46 -1.1 °C -8.5 °C 1037.1 hPa Calm   1.6 km/h 57 % 0 mm
19:51 -1.2 °C -8.6 °C 1037.1 hPa Calm   1.6 km/h 57 % 0 mm
19:56 -1.2 °C -8.4 °C 1037.1 hPa Calm   1.6 km/h 58 % 0 mm
20:01 -1.3 °C -8.5 °C 1037.1 hPa Calm   1.6 km/h 58 % 0 mm
20:06 -1.3 °C -8.5 °C 1037.1 hPa Calm   1.6 km/h 58 % 0 mm
20:11 -1.4 °C -8.6 °C 1037.1 hPa Calm   1.6 km/h 58 % 0 mm
20:12 -1.4 °C -8.6 °C 1037.1 hPa Calm   1.6 km/h 58 % 0 mm
20:17 -1.6 °C -8.6 °C 1037.1 hPa Calm   1.6 km/h 59 % 0 mm
20:22 -1.8 °C -8.8 °C 1037.1 hPa Calm   1.6 km/h 59 % 0 mm
20:27 -1.9 °C -8.6 °C 1037.1 hPa Calm   1.6 km/h 60 % 0 mm
20:32 -2.1 °C -8.8 °C 1037.1 hPa Calm   1.6 km/h 60 % 0 mm
20:37 -2.3 °C -8.8 °C 1037.5 hPa Calm     61 % 0 mm
20:42 -2.6 °C -8.5 °C 1037.1 hPa Calm     64 % 0 mm
20:47 -2.8 °C -8.5 °C 1037.5 hPa Calm     65 % 0 mm
20:52 -3 °C -8.5 °C 1037.1 hPa Calm     66 % 0 mm
20:57 -3.3 °C -8.5 °C 1037.1 hPa Calm     67 % 0 mm
21:02 -3.6 °C -8.6 °C 1037.5 hPa Calm     68 % 0 mm
21:07 -3.9 °C -8.9 °C 1037.5 hPa Calm     68 % 0 mm
21:12 -4.1 °C -8.6 °C 1037.5 hPa Calm     71 % 0 mm
21:17 -4.2 °C -8.5 °C 1037.5 hPa Calm     72 % 0 mm
21:22 -4.3 °C -8.6 °C 1037.5 hPa Calm     72 % 0 mm
21:27 -4.3 °C -8.6 °C 1037.5 hPa Calm     72 % 0 mm
21:32 -4.4 °C -8.5 °C 1037.5 hPa Calm     73 % 0 mm
21:38 -4.4 °C -8.2 °C 1037.5 hPa Calm     75 % 0 mm
21:42 -4.3 °C -7.9 °C 1037.5 hPa Calm     76 % 0 mm
21:48 -4.3 °C -7.7 °C 1037.5 hPa Calm     77 % 0 mm
21:53 -4 °C -7.3 °C 1037.5 hPa Calm   1.6 km/h 78 % 0 mm
21:58 -4 °C -7.4 °C 1037.5 hPa Calm   1.6 km/h 77 % 0 mm
22:03 -4 °C -7.3 °C 1037.5 hPa Calm   1.6 km/h 78 % 0 mm
22:08 -3.9 °C -7.2 °C 1037.5 hPa Calm     78 % 0 mm
22:13 -4 °C -7.3 °C 1037.5 hPa Calm     78 % 0 mm
22:18 -4.2 °C -7.5 °C 1037.5 hPa Calm     78 % 0 mm
22:23 -4.4 °C -7.7 °C 1037.5 hPa Calm     78 % 0 mm
22:28 -4.5 °C -7.4 °C 1037.8 hPa Calm     80 % 0 mm
22:33 -4.6 °C -7.5 °C 1037.8 hPa Calm     80 % 0 mm
22:38 -4.7 °C -7.6 °C 1037.8 hPa Calm     80 % 0 mm
22:43 -4.7 °C -7.5 °C 1037.8 hPa Calm     81 % 0 mm
22:48 -4.7 °C -7.5 °C 1037.8 hPa Calm     81 % 0 mm
22:53 -4.9 °C -7.7 °C 1037.8 hPa Calm     81 % 0 mm
22:58 -4.9 °C -7.5 °C 1037.8 hPa Calm     82 % 0 mm
23:03 -4.9 °C -7.5 °C 1037.8 hPa Calm     82 % 0 mm
23:08 -5.2 °C -7.8 °C 1037.8 hPa Calm     82 % 0 mm
23:13 -5.3 °C -7.7 °C 1037.8 hPa Calm     83 % 0 mm
23:18 -5.4 °C -7.7 °C 1037.8 hPa Calm     84 % 0 mm
23:23 -5.4 °C -7.5 °C 1037.8 hPa Calm     85 % 0 mm
23:28 -5.3 °C -7.4 °C 1037.8 hPa Calm     85 % 0 mm
23:33 -5.1 °C -7.1 °C 1037.8 hPa Calm     86 % 0 mm
23:38 -4.9 °C -6.7 °C 1037.5 hPa Calm     87 % 0 mm
23:43 -4.9 °C -6.9 °C 1037.5 hPa Calm     86 % 0 mm
23:48 -4.9 °C -6.7 °C 1037.5 hPa Calm     87 % 0 mm
23:53 -4.9 °C -6.7 °C 1037.5 hPa Calm   1.6 km/h 87 % 0 mm
23:58 -4.9 °C -6.9 °C 1037.5 hPa Calm   1.6 km/h 86 % 0 mm
Spring, Texas: Villages of Bridgestone
Compliments of Weather Underground - 2.5 mb

Script developed by  Jim McMurry - jmcmurry@mwt.net Adapted for the template by  Wim van der Kuil - Leuven-Template.eu

You find our weather info also at:

UK Metoffice

WeatherCloud

Weather Underground

Mid-South Weather Network

AWEKAS

Citizen Weather Observer Program (CWOP)

HAMweather, WeatherForYou, PWS Weather

Equipment we use:

Weather-station
Davis Vantage Vue

Weather-program
Meteohub

Weather-server
Debian 7.9 x86 (Guest)

Provider
DreamHost

Davis Vantage Vue

Meteohub

Debian 7.9 x86 (Guest)

DreamHost